TimeMDT,TemperatureF,Dew PointF,Humidity,Sea Level PressureIn,VisibilityMPH,Wind Direction,Wind SpeedMPH,Gust SpeedMPH,PrecipitationIn,Events,Conditions,WindDirDegrees,DateUTC
12:15 AM,35.6,32.0,87,-9999,10.0,NW,35.7,-,N/A,,Mostly Cloudy,310,2013-05-21 06:15:00
12:35 AM,33.8,32.0,93,-9999,10.0,NW,29.9,-,N/A,,Mostly Cloudy,310,2013-05-21 06:35:00
12:55 AM,33.8,32.0,93,-9999,10.0,NW,28.8,-,N/A,,Scattered Clouds,310,2013-05-21 06:55:00
1:15 AM,33.8,32.0,93,-9999,10.0,NW,29.9,-,N/A,,Clear,310,2013-05-21 07:15:00
1:35 AM,33.8,32.0,93,-9999,10.0,NW,28.8,-,N/A,,Clear,310,2013-05-21 07:35:00
1:55 AM,33.8,32.0,93,-9999,10.0,WNW,24.2,-,N/A,,Clear,300,2013-05-21 07:55:00
2:15 AM,33.8,32.0,93,-9999,10.0,WNW,25.3,-,N/A,,Clear,290,2013-05-21 08:15:00
2:35 AM,35.6,33.8,93,-9999,10.0,WNW,26.5,-,N/A,,Clear,290,2013-05-21 08:35:00
2:55 AM,35.6,32.0,87,-9999,10.0,WNW,25.3,-,N/A,,Clear,300,2013-05-21 08:55:00
3:15 AM,35.6,32.0,87,-9999,10.0,WNW,26.5,-,N/A,,Clear,290,2013-05-21 09:15:00
3:35 AM,35.6,32.0,87,-9999,10.0,WNW,24.2,-,N/A,,Clear,300,2013-05-21 09:35:00
3:55 AM,35.6,32.0,87,-9999,10.0,WNW,24.2,-,N/A,,Clear,300,2013-05-21 09:55:00
4:15 AM,35.6,32.0,87,-9999,10.0,NW,24.2,-,N/A,,Clear,310,2013-05-21 10:15:00
4:35 AM,35.6,30.2,81,-9999,10.0,NW,23.0,-,N/A,,Clear,310,2013-05-21 10:35:00
4:55 AM,33.8,32.0,93,-9999,10.0,NW,24.2,-,N/A,,Clear,310,2013-05-21 10:55:00
5:15 AM,33.8,30.2,87,-9999,10.0,NW,25.3,-,N/A,,Clear,310,2013-05-21 11:15:00
5:35 AM,33.8,30.2,87,-9999,10.0,NW,25.3,-,N/A,,Clear,310,2013-05-21 11:35:00
5:55 AM,35.6,30.2,81,-9999,10.0,WNW,25.3,-,N/A,,Clear,300,2013-05-21 11:55:00
6:15 AM,33.8,30.2,87,-9999,10.0,NW,24.2,-,N/A,,Clear,310,2013-05-21 12:15:00
6:35 AM,35.6,30.2,81,-9999,10.0,WNW,24.2,-,N/A,,Clear,300,2013-05-21 12:35:00
6:55 AM,35.6,30.2,81,-9999,10.0,WNW,27.6,-,N/A,,Clear,300,2013-05-21 12:55:00
7:15 AM,37.4,32.0,81,-9999,10.0,NW,25.3,-,N/A,,Clear,310,2013-05-21 13:15:00
7:35 AM,37.4,32.0,81,-9999,10.0,NW,24.2,-,N/A,,Clear,310,2013-05-21 13:35:00
7:55 AM,39.2,32.0,75,-9999,10.0,NW,23.0,-,N/A,,Clear,310,2013-05-21 13:55:00
8:15 AM,39.2,32.0,75,-9999,10.0,NW,21.9,-,N/A,,Clear,320,2013-05-21 14:15:00
8:35 AM,39.2,32.0,75,-9999,10.0,NW,20.7,-,N/A,,Clear,320,2013-05-21 14:35:00
8:55 AM,39.2,32.0,75,-9999,10.0,NW,19.6,-,N/A,,Clear,310,2013-05-21 14:55:00
9:15 AM,41.0,32.0,70,-9999,10.0,NW,23.0,-,N/A,,Clear,320,2013-05-21 15:15:00
9:35 AM,41.0,32.0,70,-9999,10.0,NW,21.9,27.6,N/A,,Clear,310,2013-05-21 15:35:00
9:55 AM,42.8,32.0,66,-9999,10.0,NW,20.7,-,N/A,,Clear,320,2013-05-21 15:55:00
10:15 AM,42.8,32.0,66,30.16,10.0,NW,17.3,-,N/A,,Clear,320,2013-05-21 16:15:00
10:35 AM,42.8,32.0,66,30.18,10.0,NW,17.3,23.0,N/A,,Clear,320,2013-05-21 16:35:00
10:55 AM,44.6,32.0,61,-9999,10.0,WNW,15.0,-,N/A,,Clear,300,2013-05-21 16:55:00
11:15 AM,44.6,30.2,57,30.16,10.0,NW,13.8,20.7,N/A,,Clear,320,2013-05-21 17:15:00
11:35 AM,44.6,32.0,61,30.18,10.0,NNW,13.8,19.6,N/A,,Clear,330,2013-05-21 17:35:00
11:55 AM,44.6,33.8,66,-9999,10.0,NW,13.8,17.3,N/A,,Clear,320,2013-05-21 17:55:00
12:15 PM,46.4,33.8,62,30.18,10.0,NW,15.0,-,N/A,,Clear,320,2013-05-21 18:15:00
12:35 PM,46.4,33.8,62,30.17,10.0,WNW,11.5,16.1,N/A,,Clear,290,2013-05-21 18:35:00
12:55 PM,46.4,33.8,62,30.17,10.0,NW,5.8,-,N/A,,Clear,320,2013-05-21 18:55:00
1:15 PM,50.0,35.6,58,30.16,10.0,NNW,6.9,16.1,N/A,,Clear,340,2013-05-21 19:15:00
1:35 PM,50.0,33.8,54,30.16,10.0,West,3.5,16.1,N/A,,Clear,280,2013-05-21 19:35:00
1:55 PM,50.0,35.6,58,30.15,10.0,NW,10.4,-,N/A,,Clear,320,2013-05-21 19:55:00
2:15 PM,50.0,32.0,50,30.14,10.0,NW,4.6,-,N/A,,Scattered Clouds,310,2013-05-21 20:15:00
2:35 PM,51.8,33.8,50,30.14,10.0,Calm,Calm,-,N/A,,Scattered Clouds,0,2013-05-21 20:35:00
2:55 PM,51.8,32.0,47,30.14,10.0,North,5.8,-,N/A,,Clear,350,2013-05-21 20:55:00
3:15 PM,51.8,32.0,47,30.13,10.0,NE,3.5,-,N/A,,Clear,40,2013-05-21 21:15:00
3:35 PM,51.8,32.0,47,30.13,10.0,NNW,3.5,-,N/A,,Clear,340,2013-05-21 21:35:00
3:55 PM,51.8,32.0,47,30.12,10.0,WNW,6.9,-,N/A,,Clear,290,2013-05-21 21:55:00
4:15 PM,51.8,32.0,47,30.11,10.0,Calm,Calm,-,N/A,,Clear,0,2013-05-21 22:15:00
4:35 PM,53.6,33.8,47,30.11,10.0,Calm,Calm,-,N/A,,Clear,0,2013-05-21 22:35:00
4:55 PM,53.6,32.0,44,30.10,10.0,WNW,9.2,-,N/A,,Clear,290,2013-05-21 22:55:00
5:15 PM,53.6,32.0,44,30.10,10.0,NW,5.8,-,N/A,,Clear,320,2013-05-21 23:15:00
5:35 PM,51.8,32.0,47,30.09,10.0,NW,8.1,-,N/A,,Clear,320,2013-05-21 23:35:00
5:55 PM,53.6,32.0,44,30.09,10.0,NNW,9.2,-,N/A,,Clear,340,2013-05-21 23:55:00
6:15 PM,51.8,32.0,47,30.08,10.0,NW,9.2,-,N/A,,Scattered Clouds,320,2013-05-22 00:15:00
6:35 PM,51.8,32.0,47,30.08,10.0,NNW,6.9,-,N/A,,Overcast,330,2013-05-22 00:35:00
6:55 PM,50.0,32.0,50,30.08,10.0,NNW,8.1,-,N/A,,Mostly Cloudy,340,2013-05-22 00:55:00
7:15 PM,51.8,32.0,47,30.07,10.0,NNW,9.2,-,N/A,,Overcast,340,2013-05-22 01:15:00
7:35 PM,51.8,30.2,44,30.07,10.0,NNW,10.4,-,N/A,,Overcast,340,2013-05-22 01:35:00
7:55 PM,50.0,32.0,50,30.07,10.0,North,9.2,-,N/A,,Overcast,350,2013-05-22 01:55:00
8:15 PM,50.0,30.2,47,30.07,10.0,North,8.1,-,N/A,,Scattered Clouds,360,2013-05-22 02:15:00
8:35 PM,50.0,28.4,43,30.08,10.0,North,6.9,-,N/A,,Clear,360,2013-05-22 02:35:00
8:55 PM,50.0,28.4,43,30.07,10.0,North,5.8,-,N/A,,Mostly Cloudy,360,2013-05-22 02:55:00
9:15 PM,50.0,28.4,43,30.08,10.0,North,4.6,-,N/A,,Overcast,10,2013-05-22 03:15:00
9:35 PM,50.0,26.6,40,30.08,10.0,NNE,5.8,-,N/A,,Mostly Cloudy,30,2013-05-22 03:35:00
9:55 PM,48.2,26.6,43,30.08,10.0,ENE,3.5,-,N/A,,Clear,60,2013-05-22 03:55:00
10:15 PM,50.0,26.6,40,30.08,10.0,East,6.9,-,N/A,,Clear,90,2013-05-22 04:15:00
10:35 PM,50.0,23.0,35,30.08,10.0,ESE,5.8,-,N/A,,Scattered Clouds,120,2013-05-22 04:35:00
10:55 PM,46.4,28.4,50,30.07,10.0,SE,9.2,-,N/A,,Scattered Clouds,130,2013-05-22 04:55:00
11:15 PM,46.4,28.4,50,30.07,10.0,ESE,10.4,-,N/A,,Scattered Clouds,110,2013-05-22 05:15:00
11:35 PM,44.6,30.2,57,30.07,10.0,ESE,8.1,-,N/A,,Scattered Clouds,120,2013-05-22 05:35:00
11:55 PM,44.6,30.2,57,30.07,10.0,East,6.9,-,N/A,,Mostly Cloudy,90,2013-05-22 05:55:00